Location: Observatoire de Paris
(48.8363°N, 2.3365°E)
Time: 04:45:42
(UTC+01:00)

METEOR M2 - Pass Details

Date: 24 September 2021
Orbit: 819 x 826 km, 98.5° (Epoch: 19 October)

Event Time Altitude Azimuth Distance (km) Brightness Sun altitude
Rises 20:32:32 0° 201° (SSW) 3,338 ? -18.3°
Reaches altitude 10° 20:35:19 10° 215° (SW) 2,411 ? -18.7°
Maximum altitude 20:39:35 24° 268° (W) 1,642 ? -19.4°
Drops below altitude 10° 20:43:53 10° 322° (NW) 2,427 ? -20.1°
Sets 20:46:42 0° 336° (NNW) 3,366 ? -20.5°
